Location: Newark
(47.5500°N, 8.6167°E)
Time: 11:07:07
(UTC+00:00)

Envisat - Pass Details

Date: 30 January 2020
Orbit: 764 x 766 km, 98.1° (Epoch: 23 February)

Event Time Altitude Azimuth Distance (km) Brightness Sun altitude
Rises 17:42:18 0° 183° (S) 3,220 6.4 -13.5°
Reaches altitude 10° 17:44:42 10° 190° (S) 2,298 5.7 -13.9°
Maximum altitude 17:49:31 43° 262° (W) 1,066 4.3 -14.7°
Drops below altitude 10° 17:54:23 10° 334° (NNW) 2,314 5.7 -15.5°
Sets 17:56:49 0° 341° (NNW) 3,245 6.4 -15.9°
